Theta_e
322 324 326 326 325 326 327 328 328 329 329 329 330 329 327 327 328 323 315 322 326 331 326 325 325 325 325 323 322 318 311 309 311 309 311 314 312 315 317 315 318 321 319 325 333
321 322 324 325 325 325 326 327 327 328 328 329 329 328 327 328 321 316 327 329 329 330 323 320 317 320 316 318 320 316 311 312 315 316 313 312 314 314 313 314 315 319 325 328 332
320 321 322 324 325 325 325 326 326 327 328 328 328 328 327 326 315 315 330 331 331 329 325 322 320 318 312 317 316 316 310 315 315 313 314 313 311 314 313 312 315 316 321 326 329
318 320 321 322 324 325 325 325 325 326 327 327 327 326 326 322 302 317 324 331 331 328 323 319 316 311 309 308 313 310 315 315 314 312 312 312 314 310 313 316 318 320 322 326 326
316 318 319 321 322 323 324 325 325 325 326 326 326 325 321 311 312 322 326 327 326 324 319 316 312 311 306 308 310 310 310 314 315 312 311 312 311 312 313 317 317 318 320 324 325
315 316 317 319 320 322 324 324 324 325 325 326 326 324 316 305 322 323 324 325 323 321 318 317 313 314 309 308 308 309 309 311 314 314 313 311 313 312 316 319 318 315 316 318 321
313 315 316 318 319 321 322 323 323 324 325 326 326 322 313 309 322 325 324 323 323 321 317 320 320 315 311 308 312 311 307 309 311 313 313 314 310 311 317 319 316 318 318 319 321
312 313 314 316 318 320 321 322 322 322 324 325 325 319 306 320 325 322 323 321 324 324 321 323 323 317 313 313 310 305 304 298 305 309 312 313 302 312 318 318 316 316 318 320 322
311 312 313 315 316 318 319 321 321 323 324 324 316 312 302 321 317 321 322 317 319 321 322 322 320 312 312 303 299 302 294 297 299 310 308 309 301 308 314 316 315 316 318 318 320
310 311 313 314 315 317 318 319 320 321 320 318 314 305 308 306 315 318 322 320 315 316 314 314 312 306 305 300 290 294 295 296 296 302 305 303 304 306 310 313 312 314 315 317 317
310 311 312 313 314 316 315 313 308 305 308 299 301 302 305 312 318 315 319 316 315 311 302 308 301 297 300 302 301 299 297 296 299 303 302 302 302 304 307 308 308 310 312 314 316
309 309 311 312 314 315 313 305 307 308 298 302 304 306 309 313 306 311 318 308 306 300 304 302 296 302 303 303 300 300 297 296 299 302 302 301 299 303 305 306 308 308 309 310 312
308 309 310 312 313 310 306 307 312 310 296 297 301 302 305 310 304 305 312 308 304 300 300 297 298 303 301 300 297 297 296 296 296 301 303 300 297 300 304 307 308 309 310 311 311
308 308 310 311 305 307 302 310 312 310 288 290 294 300 304 308 301 312 314 308 303 298 300 299 302 300 299 298 299 293 300 298 297 295 290 299 289 298 302 303 305 307 309 310 311
307 308 309 310 303 301 305 310 310 304 277 293 294 306 306 300 302 304 314 307 299 299 299 296 297 297 297 298 301 297 301 299 297 294 293 294 290 294 300 299 302 305 307 309 312
306 307 308 306 305 306 309 309 304 282 276 287 294 293 297 299 300 305 305 309 307 300 300 298 302 301 300 301 302 301 296 295 295 293 285 291 291 291 295 297 300 304 306 307 308
304 306 306 306 298 309 309 301 284 278 288 284 289 294 294 293 296 298 297 295 292 287 288 293 295 301 301 296 300 298 293 284 283 282 283 291 289 292 297 299 300 301 304 306 309
305 306 305 305 308 308 303 290 277 285 285 290 292 292 289 294 294 296 294 291 297 296 290 286 283 295 300 297 293 295 293 286 278 280 283 290 285 291 300 303 303 304 305 307 308
305 303 301 303 308 306 294 280 281 286 290 289 291 287 288 292 293 293 292 291 296 298 289 287 288 298 299 300 298 293 289 296 287 284 283 288 291 296 300 299 301 301 302 303 306
299 296 294 305 307 299 287 283 286 293 294 293 285 289 285 287 290 290 291 295 293 299 300 294 286 293 296 297 299 296 298 286 288 279 278 283 286 287 293 295 298 299 301 303 303
297 288 298 305 303 291 282 283 288 294 296 292 291 287 289 288 291 290 290 294 297 297 300 296 292 287 291 289 291 290 291 292 291 288 281 280 284 295 295 296 296 298 301 302 303
293 282 300 303 287 285 284 285 291 293 297 295 296 293 291 292 289 289 289 294 299 297 292 293 290 284 287 290 294 296 292 293 285 283 287 285 285 297 297 297 298 299 300 301 303
286 289 299 298 281 283 288 285 287 291 293 293 293 295 295 291 287 291 292 296 299 296 290 292 286 280 281 286 290 290 292 293 292 291 285 282 284 296 296 296 298 298 299 300 301
288 282 290 292 290 286 285 285 284 292 294 295 294 295 292 289 292 289 290 293 298 298 296 295 287 286 282 286 289 285 290 292 291 285 285 285 287 291 294 295 297 298 299 299 300
289 286 287 282 283 286 287 288 285 285 292 294 290 293 291 287 288 287 292 290 295 297 296 291 284 287 289 287 288 287 288 290 288 290 285 288 288 291 294 295 296 298 298 298 297
286 285 291 287 288 285 286 286 286 286 289 287 289 292 294 289 289 287 289 290 289 294 292 292 285 287 284 286 286 284 287 289 289 290 290 290 289 296 297 297 296 297 298 296 296
293 293 291 288 287 284 284 285 288 289 292 293 293 293 291 293 295 295 294 294 293 292 291 288 285 283 281 285 284 279 283 285 288 291 290 286 291 296 295 295 296 297 297 296 296
Wind_Speed
14 14 21 19 18 16 15 14 12 10 10 8 8 7 5 3 2 5 10 2 5 8 8 6 6 5 6 3 3 3 6 9 7 6 3 9 9 4 3 3 5 5 2 8 16
14 13 15 22 20 18 16 15 13 12 10 9 9 8 6 6 6 11 5 2 4 5 7 6 4 4 8 5 3 7 9 11 9 7 2 9 9 9 6 9 8 7 6 7 17
15 14 15 17 21 20 18 16 14 13 11 9 9 9 8 8 7 7 8 13 6 5 7 7 7 7 10 7 9 8 14 5 2 8 10 5 7 5 8 7 10 12 12 11 14
16 15 15 13 19 21 20 18 15 13 12 10 10 10 10 10 9 3 2 7 9 9 8 8 11 12 9 12 12 11 13 6 4 3 3 4 6 6 11 7 6 3 6 15 15
16 15 14 14 14 19 21 19 16 14 13 12 11 12 6 6 9 7 1 6 10 9 12 11 12 13 14 11 11 14 17 4 6 3 4 4 9 10 8 12 4 3 5 12 13
16 14 13 14 13 15 20 20 18 15 14 13 12 14 10 13 7 3 2 11 10 11 11 11 6 12 9 16 13 4 16 13 8 6 5 6 12 4 7 15 9 7 9 10 12
17 15 14 13 13 11 19 20 19 17 15 15 13 14 15 16 1 7 7 10 12 13 10 10 4 6 6 7 6 7 9 12 14 14 12 6 15 21 15 13 10 13 14 13 12
17 16 15 14 13 14 11 19 20 19 17 15 12 14 8 13 4 6 7 6 7 8 8 7 6 5 4 4 3 9 13 16 14 15 8 8 21 19 18 17 19 16 15 14 14
19 18 17 15 14 14 10 12 19 18 18 15 11 10 8 7 14 9 10 10 11 8 6 6 8 11 6 10 9 10 12 17 17 10 10 16 16 17 21 14 13 14 14 13 13
21 20 19 17 16 15 12 9 15 18 16 8 11 8 8 19 13 12 10 13 8 12 7 8 8 11 12 15 15 14 14 17 14 13 13 18 18 18 16 8 12 14 14 14 14
22 21 22 20 18 18 9 4 7 9 15 18 17 19 18 16 15 17 18 17 11 14 11 14 12 19 19 18 17 15 14 15 14 15 8 18 20 19 20 20 20 20 19 18 18
24 23 22 21 21 20 13 9 20 1 14 18 12 27 7 18 13 20 21 16 14 15 17 11 21 17 15 17 17 19 13 14 10 6 7 16 22 19 18 21 20 21 20 19 19
24 23 23 22 21 16 15 21 5 4 4 16 24 16 23 17 16 24 25 22 19 20 24 21 8 19 19 16 19 19 18 15 14 6 11 18 27 23 21 26 24 22 21 20 20
25 24 24 23 18 15 17 19 8 4 8 8 19 8 21 13 14 20 22 22 10 24 22 21 22 19 21 22 19 19 13 11 10 5 10 2 16 19 13 17 19 13 13 16 19
26 24 25 27 13 19 24 14 10 3 15 20 20 10 18 20 14 19 23 21 17 16 15 14 20 20 19 21 19 17 14 11 12 14 10 20 15 7 19 20 18 14 14 14 14
23 24 25 17 13 21 18 14 8 8 13 15 19 16 23 25 20 21 16 12 11 16 21 15 2 17 21 16 18 9 6 2 4 9 11 18 16 14 15 19 15 14 12 13 11
24 23 22 13 19 16 16 11 13 13 8 9 19 26 31 22 26 16 21 17 11 12 11 3 8 7 7 16 12 14 11 4 6 7 12 9 15 21 11 12 11 8 9 8 6
26 25 18 14 15 16 15 14 19 17 9 4 20 29 27 29 23 24 23 17 16 17 12 13 8 19 16 16 12 22 16 8 9 11 10 8 12 11 4 3 7 7 7 6 5
25 13 12 12 16 14 12 23 20 21 7 17 25 29 19 26 15 17 21 27 24 28 15 17 14 16 17 15 18 16 21 19 3 2 3 8 13 15 16 18 16 17 13 9 5
11 11 14 18 18 12 15 23 9 14 21 24 17 17 17 23 21 23 22 21 22 28 23 13 12 8 8 2 17 14 15 6 5 9 10 11 16 12 5 5 7 1 6 5 4
8 7 8 18 13 9 12 21 5 18 20 24 23 11 16 21 27 30 26 12 24 29 23 9 11 9 7 8 13 6 15 11 6 11 9 8 8 12 14 10 8 8 5 3 1
7 9 8 15 16 6 15 29 10 23 21 18 18 23 27 32 26 24 22 20 27 17 19 6 5 8 6 1 2 20 17 18 8 10 10 13 14 19 15 10 5 7 3 3 5
6 5 7 16 16 10 10 8 6 23 26 17 18 19 21 27 14 19 18 12 20 23 20 15 8 7 3 3 6 7 16 19 20 13 11 10 10 15 3 6 11 6 3 7 11
4 7 6 11 11 13 8 18 6 13 23 21 18 20 14 16 3 13 18 11 19 18 17 12 4 15 16 15 12 12 19 23 20 12 17 17 20 26 22 13 11 14 5 5 11
3 5 1 7 15 9 11 6 19 12 9 19 10 22 19 13 10 11 17 10 16 18 13 12 8 13 13 6 9 13 20 23 24 23 21 25 26 29 31 13 13 7 5 12 13
6 2 6 8 19 22 21 17 22 6 15 9 18 27 24 19 21 28 19 18 15 20 14 9 1 9 7 4 6 9 11 20 25 29 28 26 24 28 30 17 16 13 15 12 10
3 2 6 13 13 14 17 13 20 11 16 26 23 24 25 23 10 12 5 10 11 19 20 14 8 8 7 11 4 8 26 20 22 25 27 25 33 28 31 21 15 12 14 14 10
Wind_Direction
258 255 235 221 220 221 216 212 211 219 222 225 211 209 190 168 169 228 244 39 16 348 308 294 266 272 269 265 294 283 261 249 235 240 165 153 185 166 26 248 224 172 54 113 132
255 255 249 235 217 217 219 215 206 207 220 223 205 194 174 175 242 244 217 33 346 318 267 279 248 268 245 247 239 246 249 263 7 306 274 181 205 170 200 203 204 191 118 145 153
248 251 251 244 228 213 213 217 208 198 201 215 208 183 162 185 259 245 213 195 209 248 264 268 279 252 244 245 216 223 247 315 9 358 323 187 219 205 220 222 221 204 182 173 177
244 246 244 245 233 224 209 208 209 200 196 196 207 173 179 208 233 77 99 191 175 220 232 229 226 222 223 221 228 251 245 279 9 17 312 262 329 232 237 241 34 216 180 176 189
240 246 241 238 238 235 217 202 205 202 192 191 200 172 173 212 237 126 220 167 177 185 211 221 227 224 226 230 222 239 252 230 253 257 261 286 256 259 257 256 177 134 197 190 201
240 236 240 235 239 231 229 210 197 199 193 192 195 175 214 231 225 188 191 158 177 186 203 216 238 237 275 241 225 225 236 234 228 233 245 259 257 256 234 237 242 219 222 219 220
240 233 227 228 234 235 221 217 202 198 192 192 194 192 227 223 270 204 186 184 185 193 191 210 247 220 239 244 224 248 235 240 240 243 244 259 254 243 248 249 250 248 236 241 242
233 235 221 221 232 227 225 217 213 200 187 190 186 200 241 225 172 179 164 138 168 195 220 192 222 249 267 66 186 225 234 246 232 218 226 217 260 253 245 239 249 248 250 244 238
232 227 221 219 222 215 225 221 217 201 184 175 190 203 229 137 198 177 195 163 151 154 170 183 209 222 189 220 218 217 237 228 240 194 229 212 258 251 253 229 238 254 252 243 243
234 222 218 215 214 211 217 220 217 202 179 180 214 178 213 203 187 174 187 162 148 146 138 190 198 208 212 211 221 227 225 248 238 206 227 240 246 263 264 219 242 256 263 262 251
225 219 216 209 211 204 187 171 206 201 187 190 192 217 152 181 171 186 168 179 176 177 185 197 203 209 206 223 236 263 283 237 229 248 259 247 252 251 257 256 257 257 254 256 259
219 218 214 207 209 209 200 216 211 142 176 198 214 209 211 166 176 191 176 180 188 196 192 185 223 213 218 217 227 243 243 246 257 255 258 276 267 259 253 260 259 259 260 259 260
216 214 213 206 205 202 210 221 159 276 135 202 222 203 201 183 190 189 187 195 195 196 198 206 207 214 209 210 218 231 230 242 255 234 260 278 272 258 250 255 251 251 257 257 256
215 209 208 203 204 200 210 219 144 209 208 196 205 226 210 201 220 183 200 182 195 207 203 222 219 204 213 215 208 227 226 253 273 291 261 67 286 275 268 238 230 233 249 253 249
214 205 207 201 203 200 205 186 132 267 229 158 182 190 180 196 146 194 192 206 201 197 196 207 207 209 205 213 213 235 237 228 247 254 286 261 272 266 237 249 252 240 260 248 252
209 209 205 208 212 213 196 154 146 211 229 166 156 182 167 197 203 161 185 201 214 201 204 213 313 200 214 213 194 151 103 212 267 249 243 249 247 273 244 253 248 230 240 257 250
210 210 200 194 207 201 185 168 208 211 150 144 161 169 178 176 198 181 186 190 169 164 182 216 215 189 224 193 172 175 168 204 221 213 244 247 216 244 314 309 300 295 273 280 234
196 203 203 204 207 202 187 201 227 184 171 132 168 172 185 172 197 186 183 196 197 201 164 176 197 196 188 188 184 196 176 192 207 213 246 183 234 244 30 322 267 268 286 313 281
190 195 198 203 202 195 200 217 204 169 145 151 173 170 182 188 168 174 195 200 190 196 181 195 207 185 189 196 186 197 214 221 282 85 296 221 244 274 264 262 255 265 253 278 57
182 184 210 195 196 199 229 204 193 195 160 167 169 185 170 178 185 191 188 194 197 208 208 198 208 178 176 30 213 198 189 175 195 205 227 236 247 254 239 178 187 286 174 71 71
175 185 188 184 190 208 221 237 189 194 178 178 178 161 177 176 194 189 191 174 195 204 209 220 202 163 144 214 176 176 192 209 216 228 229 247 242 231 255 274 284 268 102 101 34
171 198 170 169 202 196 219 209 174 186 202 189 180 176 188 181 193 191 195 197 195 185 196 208 145 174 161 284 249 218 197 198 210 204 242 263 263 276 290 288 260 149 132 326 312
169 189 164 169 217 179 213 217 248 191 195 177 176 194 190 184 183 180 172 182 171 183 166 174 160 128 126 335 230 215 225 219 228 245 229 225 242 263 278 316 186 220 235 314 323
147 171 177 175 200 198 180 220 184 195 195 175 175 182 157 164 118 181 178 175 179 188 167 179 189 216 203 214 154 205 206 215 216 226 230 228 245 264 252 228 179 215 314 305 305
191 197 241 174 194 207 225 196 192 181 195 175 172 180 170 157 141 171 170 146 186 189 170 168 185 228 238 91 194 206 206 213 219 226 225 236 231 247 262 264 279 309 281 283 297
165 219 166 181 172 189 213 191 183 188 174 187 163 177 179 169 186 175 163 173 171 179 181 172 256 186 244 173 208 218 227 219 220 226 234 246 251 246 261 280 274 267 280 283 289
145 356 259 156 166 180 215 230 187 165 208 180 187 181 179 183 169 168 113 158 142 180 179 163 149 163 204 192 193 280 231 223 226 226 228 234 243 258 260 260 259 266 264 282 266